Theta_e
338 355 361 363 363 362 363 364 364 364 364 363 363 363 362 361 362 362 362 361 360 357 355 353 350 348 346 343 341 339 339 340 344 350 353 354 353 353 353 351 350 349 351
341 355 362 362 363 362 362 363 363 363 363 363 363 363 362 362 362 361 360 359 358 354 353 349 347 344 341 339 336 335 334 334 335 336 341 350 352 352 351 349 349 349 350
344 357 361 362 362 362 361 361 361 361 361 362 362 361 361 361 360 359 358 357 355 352 349 346 344 341 338 336 335 335 336 336 335 335 333 338 344 350 350 349 350 348 349
349 361 358 361 362 362 360 359 359 359 360 360 360 360 359 359 358 357 357 355 352 349 347 344 341 339 338 338 338 338 339 340 343 339 332 337 337 346 348 349 351 349 346
348 356 360 362 361 361 360 359 357 358 358 358 358 358 357 357 356 356 355 354 351 347 345 343 341 340 340 340 339 340 341 344 345 342 343 344 342 340 347 349 350 350 347
347 351 360 361 361 361 360 359 358 357 357 357 357 357 356 356 355 354 354 353 351 347 344 344 344 343 341 341 340 341 343 344 341 344 347 343 341 340 348 347 349 349 348
344 349 358 361 361 361 360 359 358 358 357 357 357 357 357 355 354 354 353 352 351 349 348 346 345 346 345 342 341 342 343 344 342 346 347 346 344 339 348 346 347 349 349
343 348 353 361 360 360 359 358 358 357 357 357 357 357 356 355 354 353 353 352 351 350 348 347 346 346 346 345 343 343 343 343 342 343 344 346 339 339 347 346 346 347 348
343 346 352 356 360 360 358 358 357 357 356 356 355 355 355 355 354 353 352 351 350 350 348 347 347 347 346 345 344 344 343 344 342 342 338 340 337 340 343 347 346 345 345
341 342 348 353 356 357 357 358 358 357 356 356 356 356 355 355 354 353 350 350 351 350 349 348 348 347 346 346 346 344 343 344 343 341 342 340 339 340 343 346 346 345 343
337 343 348 351 354 355 353 355 357 358 357 356 356 356 354 352 352 351 348 349 350 350 349 349 348 348 347 344 343 343 343 342 341 343 343 339 340 342 344 346 348 346 345
333 339 345 351 352 354 352 355 356 355 356 356 356 357 355 354 354 350 350 348 350 350 349 349 349 349 345 340 340 343 340 342 342 342 343 341 343 343 345 348 350 348 347
333 336 341 349 353 352 350 353 354 354 355 354 355 355 355 352 353 352 349 348 347 347 341 343 342 340 340 341 339 340 340 343 341 340 342 342 344 345 345 349 351 349 348
333 335 340 344 349 351 349 349 351 350 353 350 351 353 351 347 349 350 347 347 348 344 343 341 339 340 341 341 340 339 339 339 338 339 341 341 344 346 347 349 350 349 348
334 335 337 343 345 348 348 346 349 349 350 349 349 351 351 348 347 348 347 345 344 343 341 340 339 339 339 339 338 338 337 338 339 339 339 340 342 345 347 348 350 348 347
337 335 338 340 347 346 345 345 347 348 349 348 347 348 350 348 347 344 345 343 342 341 340 339 338 337 336 336 336 338 338 337 338 339 337 339 342 344 346 348 350 350 347
337 339 340 342 344 347 347 343 344 343 344 343 344 347 345 347 346 345 341 340 340 340 342 340 339 338 336 335 335 336 337 339 339 339 339 338 341 343 343 347 350 348 346
331 337 344 340 340 345 345 343 340 342 340 340 341 342 343 343 343 341 339 337 338 339 337 336 336 334 333 334 334 335 337 339 340 341 340 340 344 345 345 346 348 348 348
327 338 344 344 339 343 341 341 340 344 340 341 340 340 341 341 341 338 337 337 340 337 335 335 335 335 334 334 334 336 338 338 340 339 340 344 347 348 347 346 344 345 345
322 328 340 347 347 344 338 337 337 338 341 340 341 340 337 339 339 338 336 339 339 336 335 336 337 337 336 335 333 334 338 338 340 341 342 344 348 348 349 348 347 343 343
319 321 324 335 351 349 343 338 335 333 336 337 339 343 337 339 341 339 337 333 336 336 340 340 338 338 336 337 334 335 336 339 340 341 343 344 344 346 347 347 346 344 344
317 321 321 324 333 345 347 347 345 343 339 341 341 347 347 343 342 341 339 338 338 339 341 341 339 337 337 338 334 336 329 334 337 340 342 343 344 344 344 345 344 345 345
317 319 320 322 324 331 343 346 346 345 345 342 344 346 346 345 344 343 345 343 341 343 340 341 341 340 337 338 339 337 328 326 333 337 339 341 343 342 343 344 343 344 345
314 316 319 322 323 323 332 337 345 341 340 344 344 346 348 347 346 346 347 346 345 343 345 343 342 342 341 337 335 339 337 336 328 326 334 336 339 339 341 341 341 342 343
313 314 317 320 323 326 326 333 335 342 344 346 345 351 354 349 350 348 350 348 346 345 346 345 343 341 340 338 336 335 336 335 333 329 326 329 333 336 338 338 339 340 341
312 312 315 317 322 325 325 328 332 336 340 339 342 342 343 344 347 350 350 349 349 348 346 345 344 343 341 340 340 339 335 332 330 329 329 331 331 334 335 337 337 338 339
Wind_Speed
14 22 23 19 16 16 19 20 20 20 20 19 19 18 17 17 17 16 15 14 13 13 13 12 12 11 11 10 10 9 9 9 8 9 9 8 7 7 7 6 5 5 6
22 24 24 22 19 18 18 19 19 19 19 19 18 18 17 16 16 15 15 14 12 13 13 12 11 11 10 9 9 9 8 7 6 6 7 7 6 5 4 3 3 6 4
24 24 24 23 21 20 20 20 19 20 20 19 19 18 18 16 16 15 14 13 13 13 12 12 11 10 10 10 9 9 9 8 7 6 5 4 5 4 3 2 4 4 6
23 21 23 24 22 22 21 21 20 20 20 19 19 19 18 17 16 15 14 13 13 13 12 12 12 11 11 11 10 9 9 8 7 5 4 3 3 3 2 0 4 5 5
22 21 22 24 21 21 22 22 21 21 21 19 19 19 18 17 16 15 14 13 13 13 12 11 12 11 11 11 11 9 8 7 6 4 5 3 2 5 2 1 4 4 4
22 22 23 23 22 21 21 22 22 22 22 21 19 18 17 17 16 14 14 12 12 12 12 11 10 10 10 11 10 9 6 6 4 4 3 4 3 6 5 2 1 2 3
23 21 23 24 22 21 21 20 21 21 21 21 20 18 17 17 15 14 13 13 12 11 11 10 10 9 8 9 9 8 6 4 4 4 2 2 4 2 5 4 2 2 4
22 21 21 21 20 19 19 19 19 20 21 21 20 19 18 17 16 15 13 12 12 12 11 11 10 9 8 7 8 7 5 4 5 3 2 2 4 1 4 4 3 3 4
19 20 19 21 18 18 17 17 17 17 19 19 19 18 17 16 16 14 13 12 12 11 11 12 11 10 9 8 7 7 5 4 4 3 3 3 3 0 6 7 6 5 6
13 17 19 18 18 17 16 15 14 14 14 15 16 16 15 14 14 14 12 12 12 10 10 10 11 10 9 8 7 6 5 5 5 4 3 2 3 4 4 8 7 6 6
10 13 14 16 16 16 16 15 12 13 12 11 12 12 11 10 12 12 12 10 11 11 10 9 10 10 9 9 8 8 7 4 5 4 3 2 5 5 4 7 8 7 7
14 13 13 14 15 14 11 13 14 13 11 11 11 11 9 9 9 9 8 10 9 9 9 10 9 10 10 7 6 9 6 5 5 4 4 3 7 7 7 9 9 9 7
13 12 12 12 12 14 12 9 7 7 8 8 12 10 10 7 7 7 6 7 7 10 8 10 10 9 10 7 6 6 6 6 5 4 5 6 8 9 8 10 11 11 8
16 13 13 12 12 12 9 9 10 9 9 8 10 12 8 6 7 7 6 7 7 6 8 8 6 8 9 9 8 8 8 6 5 4 5 8 10 11 11 11 12 10 8
12 15 14 12 12 12 12 9 9 10 10 11 10 12 10 9 8 8 7 7 8 7 8 8 8 8 8 9 9 9 9 9 8 6 5 7 10 11 12 13 13 10 10
9 13 12 20 15 14 12 11 9 9 9 10 10 9 12 9 8 8 8 9 9 8 8 8 7 7 7 8 9 10 10 9 9 8 6 6 10 12 12 14 13 11 11
7 6 12 13 12 17 17 12 10 9 9 9 8 10 11 10 10 9 8 8 8 6 8 8 8 7 7 8 9 9 9 10 9 9 8 8 7 12 12 13 13 11 11
7 9 9 12 14 13 12 12 11 10 10 8 9 9 12 12 11 11 10 10 9 7 7 8 7 7 8 8 7 7 7 7 9 9 8 8 7 7 8 13 12 13 12
6 5 8 10 12 14 12 9 8 12 10 10 9 10 12 13 15 12 9 7 9 7 7 8 7 8 7 7 7 7 7 7 8 6 8 9 9 7 6 5 7 8 11
9 7 5 4 6 8 7 8 9 9 9 9 9 10 11 10 13 10 7 6 11 7 8 7 9 7 6 7 6 6 6 6 6 6 8 7 8 9 9 8 6 7 9
8 8 6 7 12 11 11 5 7 11 10 10 10 11 11 11 11 12 8 8 7 7 9 9 8 9 7 5 4 5 7 8 8 7 7 7 8 8 7 7 6 6 6
10 10 7 5 7 9 9 9 9 10 11 11 9 10 12 12 11 11 10 8 8 11 11 9 10 7 7 7 4 2 4 5 6 7 6 6 7 5 7 8 8 8 7
12 11 12 8 6 8 12 9 8 5 7 10 10 10 10 11 12 15 14 10 12 11 9 11 11 12 7 7 9 3 4 5 3 3 7 6 6 6 7 8 8 8 7
13 14 13 12 9 5 9 11 14 12 12 12 12 11 9 13 14 16 12 13 12 10 10 10 10 10 9 8 5 8 5 2 4 3 4 5 5 5 4 4 5 6 6
11 11 13 13 12 9 6 10 11 14 11 10 9 9 9 10 15 14 15 15 12 11 11 11 11 12 9 8 8 6 10 7 5 5 7 5 5 5 4 5 4 4 5
11 10 12 13 14 12 9 8 13 14 14 12 13 11 11 9 9 13 15 13 14 11 13 10 11 12 11 10 9 8 9 7 7 7 8 6 6 4 3 4 4 3 3
Wind_Direction
170 159 169 171 168 157 149 145 141 138 138 140 143 142 144 142 141 141 139 140 141 142 134 129 122 115 112 109 102 96 90 86 86 89 91 92 102 107 104 100 130 114 131
155 162 166 170 169 163 154 147 143 139 139 141 141 142 144 143 142 142 144 147 150 145 140 134 129 125 117 109 103 102 99 96 92 90 88 95 93 104 135 123 128 98 140
152 160 168 169 172 167 160 152 149 145 144 145 146 146 145 146 147 147 151 154 152 148 146 139 132 126 124 116 115 112 107 100 93 90 86 102 99 98 118 166 156 151 155
156 158 168 171 176 169 165 158 154 150 149 150 151 149 151 152 152 154 156 156 156 154 150 146 140 136 133 131 122 112 105 103 99 105 127 116 123 108 110 146 180 172 166
162 163 164 171 177 174 171 163 159 158 154 155 155 154 157 156 157 160 162 160 161 161 158 152 147 146 141 133 123 119 112 109 100 147 99 77 168 130 141 93 167 187 192
162 168 158 169 176 181 177 169 164 163 159 159 160 160 162 161 164 166 161 164 165 166 162 160 156 153 146 135 134 130 129 119 163 122 107 95 103 129 165 163 189 207 202
164 169 163 170 176 182 181 177 168 167 163 163 162 166 168 167 168 168 166 170 172 170 170 165 165 160 150 148 143 140 139 135 186 153 151 39 64 191 180 180 216 212 211
162 167 165 169 176 182 184 183 175 173 170 166 166 169 172 173 171 171 173 178 179 174 175 170 171 164 162 162 155 154 153 202 194 207 196 226 70 247 228 205 220 229 236
167 167 169 174 180 182 184 187 181 180 176 169 170 171 174 176 174 175 178 183 184 182 183 175 174 175 172 176 176 175 174 208 235 224 223 230 123 292 221 226 216 226 241
179 174 170 175 181 189 187 187 188 183 182 171 173 173 174 179 178 180 180 186 187 188 195 182 182 182 178 184 192 197 202 214 246 246 239 235 268 253 223 225 227 223 233
187 179 179 176 180 190 192 188 186 186 181 172 180 177 169 190 189 185 198 180 192 189 197 195 191 194 187 195 207 212 222 231 236 251 257 144 266 251 254 233 233 229 231
199 196 185 185 181 190 193 194 195 193 194 192 192 189 198 196 197 200 195 196 197 197 200 201 201 202 204 215 203 214 227 227 236 247 255 236 256 255 262 243 232 234 229
211 202 195 189 184 196 195 192 192 196 190 192 196 193 200 194 204 200 198 196 206 201 212 201 204 222 221 227 222 225 224 226 234 237 245 237 251 256 262 242 231 236 217
198 205 202 197 191 194 203 200 198 195 196 197 197 193 197 193 199 207 210 205 203 206 218 220 217 227 225 235 236 239 234 240 239 239 242 237 251 256 257 248 234 238 225
213 202 200 192 191 194 201 206 207 205 196 198 199 197 195 202 200 202 210 212 211 208 212 218 223 224 226 232 240 244 245 245 249 252 255 224 245 252 250 250 240 237 237
228 212 205 193 193 192 204 209 216 209 208 200 201 200 205 207 211 210 205 218 218 212 215 222 218 225 230 234 238 243 248 251 249 252 251 253 229 246 250 248 235 226 234
254 261 206 203 204 190 197 198 213 217 215 210 220 201 206 214 211 218 225 219 233 229 229 221 220 219 231 233 240 246 248 248 251 251 250 252 239 227 251 249 231 223 235
286 246 218 199 194 216 216 198 192 207 210 203 214 216 206 209 211 211 213 218 204 207 229 230 223 221 230 233 233 236 240 245 249 248 245 246 239 253 230 241 231 224 224
347 261 243 195 176 211 209 198 214 200 208 207 202 216 210 201 216 209 206 208 211 195 216 234 229 224 224 235 239 238 237 242 243 240 238 241 242 245 250 225 235 226 226
359 1 276 253 246 221 245 190 191 224 227 213 208 210 205 208 218 218 198 203 219 184 207 210 228 218 233 238 237 241 246 242 246 240 240 239 244 249 247 252 240 238 230
349 4 347 231 216 207 202 209 225 215 221 219 224 222 218 206 208 191 185 164 224 243 211 194 212 226 223 219 232 241 252 241 240 237 243 242 248 243 241 241 248 255 238
328 333 339 333 287 233 219 210 221 231 216 213 217 222 214 202 191 190 192 213 189 217 207 193 201 211 225 195 215 234 260 207 224 226 232 235 240 239 242 240 252 248 248
329 333 324 321 297 263 234 222 216 238 242 214 217 217 217 199 188 198 195 187 200 211 201 195 202 210 216 199 200 205 200 232 203 179 217 235 243 245 255 248 241 243 238
322 320 317 317 310 284 251 233 224 214 230 228 213 210 217 199 197 208 192 203 205 209 202 196 201 210 210 209 199 227 249 275 219 188 213 221 230 228 222 227 229 233 240
315 314 310 310 305 303 259 240 228 228 221 240 244 235 216 206 206 203 203 202 198 209 208 192 196 204 202 211 212 180 221 234 248 257 248 197 213 223 216 231 235 237 241
312 309 311 310 300 304 305 267 235 233 228 225 228 235 242 237 224 215 206 203 205 198 210 192 201 201 201 208 210 196 188 199 200 215 246 241 246 182 211 226 232 245 257